Aérodrome :
LOGIN :

S'inscrire | Disclaimer

   EN    FR    IT 

 










Légende :    VFR   VFR Marginal   IFR   IFR Intensif   IFR Très Intensif
Visi : 
Plafond : 
>= 8 km
>= 3000ft
5 à 8 km
1000 à 3000 ft
1500m à 5 km
500 à 1000 ft
800 à 1500m
200 à 500 ft
< 800m
< 200 ft
Symboles :   Orages  Brouillard  Fortes neiges  Fortes précipitations  Vent > 20 kt
SIGMETs :   Divers  Orages  Givrage  Turbulence  Onde Orograph.  Cendres Volcan.







- Altitude de l'aérodrome : 291 ft
- Code IATA : ORY
- Voir les cartes d'approche


LFPO - Paris-Orly

DERNIER METAR :
  • 170730Z 31004KT 260V010 CAVOK 21/14 Q1018 NOSIG

METARs EXPIRÉS :
  • 170700Z 30006KT 270V340 CAVOK 20/14 Q1017 NOSIG
  • 170630Z 33007KT CAVOK 19/13 Q1017 NOSIG
  • 170600Z 33007KT CAVOK 19/13 Q1017 NOSIG
  • 170530Z 32007KT CAVOK 19/13 Q1017 NOSIG
  • 170500Z 33008KT CAVOK 19/13 Q1016 NOSIG

TAF TAF LFPO
Valide du 17 à 06h jusqu'au 18 à 12h UTC


170500Z 1706/1812 30005KT CAVOK
PROB30
TEMPO 1706/1708 BKN012
TEMPO 1708/1710 BKN035
BECMG 1722/1724 02008KT
ATIS : +33 1 49 75 65 80
Pas de NOTAMs connus pour ce terrain.



MET'MAP, la Météo Aéronautique d'un coup d'oeil ! - Copyright ORBIFLY Décembre 2007 - Disclaimer

ORBIFLY MET'MAP TEAM :

Programmation & Développement : Alexandra Zaïnal
Conception & Développement : Baudouin d'Aumeries
Co-Programmation & Développement : Marc-Olivier Méhu
Soutien technique & logistique : Manuel Goepfert

Contact : metmap@orbifly.com




SOURCES & CREDITS :

   NOAA